Location: NJAA Observatory
(40.6819°N, 74.8979°W)
Time: 14:46:33
(UTC-04:00)

Iridium 4 - Visible Passes

Search period start: 23 June 2017 00:00
Search period end: 03 July 2017 00:00
Orbit: 773 x 776 km, 86.4° (Epoch: 22 June)

Date Brightness Start Highest point End Pass type
(mag) Time Alt. Az. Time Alt. Az. Time Alt. Az.
23 Jun 8.1 02:35:05 10° ESE 02:37:17 13° ENE 02:39:29 10° NE visible
23 Jun 5.5 04:12:10 11° S 04:17:14 71° W 04:22:26 10° N visible
24 Jun 6.0 03:38:08 12° SSE 03:42:48 61° E 03:47:56 10° N visible
25 Jun 7.0 03:04:05 11° SE 03:08:31 32° E 03:13:06 10° NNE visible
25 Jun 6.6 04:44:43 10° SW 04:49:08 28° W 04:53:35 10° NNW visible
26 Jun 7.8 02:31:01 10° ESE 02:34:22 18° E 02:37:42 10° NE visible
26 Jun 5.8 04:10:26 15° SSW 04:14:31 52° W 04:19:36 10° N visible
27 Jun 5.5 03:36:21 20° S 03:40:02 83° E 03:45:16 10° N visible
28 Jun 6.4 03:02:14 18° SSE 03:05:40 44° E 03:10:36 10° NNE visible
28 Jun 7.0 04:42:41 10° SW 04:46:31 21° WNW 04:50:25 10° NNW visible
29 Jun 7.4 02:28:08 13° SE 02:31:27 24° E 02:35:31 10° NNE visible
29 Jun 6.2 04:08:33 18° SW 04:11:51 38° W 04:16:41 10° NNW visible
30 Jun 8.0 01:55:15 10° E 01:57:21 12° ENE 01:59:28 10° NE visible
30 Jun 5.5 03:34:25 27° SSW 03:37:17 73° W 03:42:30 10° N visible
01 Jul 5.9 03:00:17 28° SSE 03:02:52 60° E 03:07:59 10° N visible
01 Jul 7.3 04:40:56 10° WSW 04:43:57 15° WNW 04:47:00 10° NW visible
02 Jul 6.9 02:26:08 21° SE 02:28:35 32° E 02:33:08 10° NNE visible
02 Jul 6.6 04:06:33 19° WSW 04:09:12 28° W 04:13:40 10° NNW visible
